Stations météo

réclame
Mon MeteoGroup
Stornoway, Grande-Bretagne (3026): Température de l'air & dewpoint: 14.04.2018 21:00:00 - 20.04.2018 21:00:00 (BST)Stornoway, Grande-Bretagne (3026): Température de l'air -20cm & Température de l'air -100cm: 14.04.2018 21:00:00 - 20.04.2018 21:00:00 (BST)Stornoway, Grande-Bretagne (3026): Vitesse du vent & gusts: 14.04.2018 21:00:00 - 20.04.2018 21:00:00 (BST)Stornoway, Grande-Bretagne (3026): Direction du vent: 14.04.2018 21:00:00 - 20.04.2018 21:00:00 (BST)Stornoway, Grande-Bretagne (3026): reduced air pressure: 14.04.2018 21:00:00 - 20.04.2018 21:00:00 (BST)Stornoway, Grande-Bretagne (3026): visibility: 14.04.2018 21:00:00 - 20.04.2018 21:00:00 (BST)Stornoway, Grande-Bretagne (3026): Ensoleillement: 14.04.2018 21:00:00 - 20.04.2018 21:00:00 (BST)Stornoway, Grande-Bretagne (3026): Quantités de précipitations: 14.04.2018 21:00:00 - 20.04.2018 21:00:00 (BST)
Date & Time tt [°C] td [°C] tt -20cm [°C] tt -100cm [°C] ff [km/h] ff [knt] fx [km/h] fx [knt] dd ppp [hPa] vv [km] sd [min] rr [mm]
20.04.2018 21:00:00 - - - - - - - - - - - - -
20.04.2018 20:00:00 9,6 6,1 - - 24 13 - - W 1020,1 30 0 0,0
20.04.2018 19:00:00 10,3 6,0 - - 34 18 46 25 W 1019,8 30 18 0,0
20.04.2018 18:00:00 11,1 5,7 - - 34 18 46 25 WSW 1019,5 29 36 0,0
20.04.2018 17:00:00 11,8 4,9 - - 31 17 50 27 W 1019,2 40 48 0,0
20.04.2018 16:00:00 12,1 5,8 - - 35 19 54 29 WSW 1018,6 23 42 0,0
20.04.2018 15:00:00 12,1 6,9 - - 35 19 50 27 WSW 1018,4 35 18 0,0
20.04.2018 14:00:00 11,3 7,3 - - 31 17 46 25 WSW 1018,1 45 12 0,0
20.04.2018 13:00:00 9,7 8,5 - - 29 16 - - SSW 1018,0 11 12 0,4
20.04.2018 12:00:00 11,8 8,8 - - 26 14 - - SSW 1017,8 22 18 0,0
20.04.2018 11:00:00 10,3 8,1 - - 18 10 - - SSW 1018,0 16 12 0,0
20.04.2018 10:00:00 11,1 8,8 8,7 7,0 22 12 - - SSW 1017,7 17 42 0,0
20.04.2018 09:00:00 9,4 8,7 - - 24 13 - - SSW 1017,7 20 0 0,4
20.04.2018 08:00:00 8,5 7,8 - - 26 14 - - SSW 1017,8 7 0 1,0
20.04.2018 07:00:00 8,5 7,9 - - 24 13 - - SSW 1018,0 6 0 2,4
20.04.2018 06:00:00 8,6 7,4 - - 11 6 - - S 1018,2 4,5 0 0,0
20.04.2018 05:00:00 9,0 7,1 - - 18 10 - - SSW 1018,5 14 0 0,0
20.04.2018 04:00:00 8,7 7,5 - - 21 11 - - S 1018,9 11 0 0,0
20.04.2018 03:00:00 8,9 7,5 - - 28 15 - - SSW 1019,0 12 0 0,0
20.04.2018 02:00:00 8,4 7,1 - - 29 16 - - SSW 1019,1 12 0 0,0
20.04.2018 01:00:00 8,4 7,0 - - 28 15 - - SSW 1019,5 11 - 0,0
20.04.2018 00:00:00 8,5 7,3 - - 28 15 - - S 1020,1 11 0 0,0
19.04.2018 23:00:00 8,5 7,2 - - 26 14 - - SSE 1020,3 11 0 0,0
19.04.2018 22:00:00 9,2 7,3 - - 16 9 - - S 1020,6 12 0 0,0
19.04.2018 21:00:00 8,8 7,1 - - 15 8 - - SSE 1020,3 12 0 0,0
19.04.2018 20:00:00 10,3 8,0 - - 15 8 - - S 1019,7 17 42 0,0
19.04.2018 19:00:00 11,9 7,7 - - 22 12 - - SSW 1019,5 15 54 0,0
19.04.2018 18:00:00 12,4 7,9 - - 21 11 - - SSW 1019,4 22 60 0,0
19.04.2018 17:00:00 13,0 8,8 - - 26 14 - - SSW 1019,2 30 54 0,0
19.04.2018 16:00:00 13,0 8,3 - - 28 15 - - SSW 1019,1 21 54 0,0
19.04.2018 15:00:00 14,8 8,9 - - 21 11 - - SSW 1018,8 21 60 0,0
19.04.2018 14:00:00 14,2 8,6 - - 29 16 - - SSW 1018,6 30 60 0,0
19.04.2018 13:00:00 13,0 9,3 - - 28 15 - - SSW 1018,3 23 24 0,0
19.04.2018 12:00:00 13,7 10,0 - - 24 13 - - SSW 1018,1 15 54 0,0
19.04.2018 11:00:00 13,4 9,2 - - 29 16 - - SW 1017,8 16 60 0,0
19.04.2018 10:00:00 12,4 9,6 8,4 6,9 26 14 - - SW 1017,3 28 60 0,0
19.04.2018 09:00:00 11,0 9,1 - - 22 12 - - SSW 1016,5 18 60 0,0
19.04.2018 08:00:00 9,8 8,6 - - 26 14 - - SSW 1015,5 11 54 -
19.04.2018 07:00:00 9,8 8,9 - - 26 14 - - SSW 1015,0 14 0 -
19.04.2018 06:00:00 9,7 8,8 - - 29 16 - - SW 1014,5 16 0 -
19.04.2018 05:00:00 9,6 8,6 - - 26 14 - - SSW 1014,4 13 0 -
19.04.2018 04:00:00 10,0 8,8 - - 31 17 48 26 SSW 1014,3 14 0 -
19.04.2018 03:00:00 10,6 9,3 - - 37 20 54 29 SSW 1014,1 19 0 -
19.04.2018 02:00:00 10,7 9,8 - - 41 22 65 35 SSW 1013,6 14 0 0,0
19.04.2018 01:00:00 11,1 9,8 - - 50 27 70 38 SSW 1013,2 8 - 0,4
19.04.2018 00:00:00 12,3 9,2 - - 39 21 59 32 S 1011,9 10 0 0,2
18.04.2018 23:00:00 12,6 8,3 - - 42 23 63 34 S 1011,1 14 0 0,0
18.04.2018 22:00:00 12,6 8,8 - - 41 22 55 30 S 1011,3 14 0 0,0
18.04.2018 21:00:00 11,5 8,1 - - 29 16 48 26 S 1011,8 16 0 0,0
18.04.2018 20:00:00 11,3 8,4 - - 29 16 - - SSE 1012,3 19 0 0,0
18.04.2018 19:00:00 10,6 8,0 - - 22 12 - - SSE 1013,2 27 0 0,0
18.04.2018 18:00:00 11,9 8,3 - - 26 14 - - S 1014,3 40 0 0,0
18.04.2018 17:00:00 11,1 7,9 - - 21 11 - - S 1015,3 30 0 0,0
18.04.2018 16:00:00 12,8 8,4 - - 29 16 46 25 SSW 1015,9 30 6 0,0
18.04.2018 15:00:00 12,9 8,4 - - 35 19 54 29 S 1015,6 25 30 0,0
18.04.2018 14:00:00 13,5 8,7 - - 35 19 50 27 S 1015,8 16 60 0,0
18.04.2018 13:00:00 12,6 8,6 - - 31 17 - - S 1015,7 13 60 0,0
18.04.2018 12:00:00 11,6 8,2 - - 29 16 - - S 1015,0 12 24 0,0
18.04.2018 11:00:00 10,4 7,3 - - 26 14 48 26 SSE 1014,8 10 54 0,0
18.04.2018 10:00:00 11,9 8,2 8,2 6,7 34 18 50 27 S 1013,9 13 54 0,0
18.04.2018 09:00:00 10,7 7,8 - - 16 9 46 25 S 1013,6 12 24 0,0
18.04.2018 08:00:00 9,2 7,7 - - 24 13 - - S 1012,7 7 30 0,0
18.04.2018 07:00:00 9,5 7,8 - - 29 16 50 27 SSW 1012,2 8 0 0,2
18.04.2018 06:00:00 9,9 7,7 - - 28 15 - - S 1011,5 10 0 0,0
18.04.2018 05:00:00 8,9 7,2 - - 22 12 48 26 S 1010,8 8 0 0,0
18.04.2018 04:00:00 9,6 7,5 - - 31 17 52 28 SSW 1010,0 9 0 0,0
18.04.2018 03:00:00 9,8 7,5 - - 29 16 48 26 SSW 1009,4 10 0 0,0
18.04.2018 02:00:00 10,0 7,3 - - 35 19 57 31 SSW 1008,5 11 0 0,0
18.04.2018 01:00:00 10,7 7,3 - - 37 20 57 31 SSW 1008,0 9 - 0,0
18.04.2018 00:00:00 10,8 7,3 - - 34 18 48 26 SSW 1007,0 9 0 0,0
17.04.2018 23:00:00 10,4 7,1 - - 35 19 61 33 SSW 1006,1 9 0 0,0
17.04.2018 22:00:00 11,1 7,2 - - 42 23 63 34 SSW 1004,9 10 0 0,0
17.04.2018 21:00:00 11,0 7,2 - - 29 16 50 27 SSW 1004,1 9 0 0,0
17.04.2018 20:00:00 11,2 7,3 - - 37 20 61 33 S 1002,7 9 6 0,0
17.04.2018 19:00:00 11,8 7,7 - - 41 22 63 34 SSW 1001,5 11 54 0,0
17.04.2018 18:00:00 12,7 7,6 - - 44 24 63 34 S 1000,6 10 60 0,0
17.04.2018 17:00:00 13,1 8,1 - - 44 24 59 32 S 999,5 14 54 0,0
17.04.2018 16:00:00 11,4 8,7 - - 39 21 59 32 S 999,4 13 30 0,2
17.04.2018 15:00:00 12,9 7,8 - - 42 23 63 34 S 998,6 15 42 0,0
17.04.2018 14:00:00 13,4 7,6 - - 50 27 67 36 S 997,9 16 42 0,0
17.04.2018 13:00:00 10,9 7,1 - - 29 16 57 31 S 997,8 10 54 0,0
17.04.2018 12:00:00 11,6 7,9 - - 42 23 57 31 S 997,2 14 60 0,0
17.04.2018 11:00:00 10,6 8,1 - - 37 20 48 26 S 996,9 12 60 0,0
17.04.2018 10:00:00 10,2 8,1 8,0 6,7 34 18 57 31 S 996,5 13 48 0,2
17.04.2018 09:00:00 9,6 8,4 - - 41 22 55 30 S 995,9 11 0 1,4
17.04.2018 08:00:00 9,0 8,0 - - 39 21 57 31 S 994,5 7 0 1,0
17.04.2018 07:00:00 9,3 7,7 - - 41 22 59 32 S 994,0 7 0 0,6
17.04.2018 06:00:00 9,5 7,7 - - 41 22 57 31 S 994,0 10 0 0,4
17.04.2018 05:00:00 9,5 7,1 - - 34 18 46 25 SSE 994,9 16 0 0,2
17.04.2018 04:00:00 9,7 6,5 - - 21 11 - - SSE 996,3 21 0 0,0
17.04.2018 03:00:00 9,8 6,3 - - 28 15 48 26 SSE 996,9 35 0 0,0
17.04.2018 02:00:00 9,6 6,1 - - 34 18 46 25 SSE 998,1 30 0 0,0
17.04.2018 01:00:00 9,6 6,2 - - 34 18 63 34 SSE 998,4 19 - 0,0
17.04.2018 00:00:00 9,3 5,7 - - 24 13 - - SSE 999,4 20 0 0,0
16.04.2018 23:00:00 9,5 5,6 - - 29 16 52 28 S 999,6 18 0 0,0
16.04.2018 22:00:00 9,8 5,5 - - 26 14 - - SSE 1000,1 23 0 0,0
16.04.2018 21:00:00 9,8 4,7 - - 26 14 - - SSE 1000,7 26 0 0,0
16.04.2018 20:00:00 10,1 4,2 - - 28 15 - - SSE 1000,4 28 0 0,0
16.04.2018 19:00:00 10,0 4,8 - - 29 16 46 25 S 1000,5 20 0 0,0
16.04.2018 18:00:00 10,3 4,7 - - 35 19 55 30 S 1001,2 27 0 0,0
16.04.2018 17:00:00 10,7 5,9 - - 28 15 - - S 1001,5 28 30 0,0
16.04.2018 16:00:00 10,0 6,4 - - 18 10 - - S 1001,7 29 60 0,0
16.04.2018 15:00:00 11,4 7,4 - - 18 10 - - S 1002,1 30 60 0,0
16.04.2018 14:00:00 11,1 6,8 - - 26 14 - - S 1002,1 15 60 0,0
16.04.2018 13:00:00 11,0 7,6 - - 22 12 - - S 1001,9 18 60 0,0
16.04.2018 12:00:00 10,7 8,6 - - 26 14 - - S 1001,5 23 42 0,0
16.04.2018 11:00:00 9,1 8,0 - - 24 13 - - S 1001,2 11 0 0,0
16.04.2018 10:00:00 9,0 7,0 7,7 6,5 15 8 - - S 1000,7 40 0 0,0
16.04.2018 09:00:00 8,9 6,5 - - 26 14 - - SSE 999,8 35 0 0,0
16.04.2018 08:00:00 9,0 6,2 - - 26 14 - - SE 999,4 25 0 0,0
16.04.2018 07:00:00 9,2 6,1 - - 24 13 - - SE 999,1 28 0 0,0
16.04.2018 06:00:00 9,6 5,9 - - 24 13 - - SE 998,8 28 0 0,0
16.04.2018 05:00:00 8,4 6,0 - - 16 9 - - SE 999,0 15 0 0,0
16.04.2018 04:00:00 8,6 6,6 - - 24 13 - - ESE 999,2 12 0 0,4
16.04.2018 03:00:00 9,1 6,1 - - 26 14 - - SE 999,5 11 0 0,0
16.04.2018 02:00:00 9,4 5,9 - - 29 16 - - ESE 999,4 13 0 0,0
16.04.2018 01:00:00 9,9 5,9 - - 21 11 - - SE 999,9 16 - 0,0
16.04.2018 00:00:00 8,6 6,2 - - 16 9 - - E 1000,3 15 0 0,0
15.04.2018 23:00:00 9,2 6,2 - - 16 9 - - SSE 1000,7 25 0 0,0
15.04.2018 22:00:00 10,0 6,0 - - 13 7 - - SE 1001,0 30 0 0,0
15.04.2018 21:00:00 11,3 6,5 - - 21 11 - - SE 1001,2 50 0 0,0
15.04.2018 20:00:00 11,5 6,6 - - 22 12 - - ESE 1001,2 40 6 0,0
15.04.2018 19:00:00 12,8 7,0 - - 15 8 - - E 1001,5 35 42 0,0
15.04.2018 18:00:00 14,8 6,7 - - 18 10 - - E 1002,0 45 42 0,0
15.04.2018 17:00:00 14,1 6,9 - - 21 11 - - E 1002,6 45 18 0,0
15.04.2018 16:00:00 15,2 7,1 - - 22 12 - - ESE 1003,8 35 54 0,0
15.04.2018 15:00:00 15,7 7,4 - - 24 13 - - E 1004,6 40 60 0,0
15.04.2018 14:00:00 11,7 7,0 - - 16 9 - - NE 1005,5 35 60 0,0
15.04.2018 13:00:00 11,1 7,4 - - 11 6 - - NE 1006,1 40 36 0,0
15.04.2018 12:00:00 12,8 6,0 - - 15 8 - - E 1006,8 50 54 0,0
15.04.2018 11:00:00 12,0 5,9 - - 13 7 - - ENE 1007,4 35 60 0,0
15.04.2018 10:00:00 11,2 6,0 7,5 6,2 9 5 - - ESE 1008,0 35 60 0,0
15.04.2018 09:00:00 9,2 6,5 - - 9 5 - - E 1008,3 30 48 0,0
15.04.2018 08:00:00 8,0 6,0 - - 8 4 - - NE 1009,1 45 36 0,0
15.04.2018 07:00:00 7,2 5,8 - - 13 7 - - NE 1009,2 30 0 0,0
15.04.2018 06:00:00 7,1 5,5 - - 8 4 - - NE 1010,0 35 0 0,0
15.04.2018 05:00:00 6,0 4,2 - - 8 4 - - ENE 1010,4 30 0 0,0
15.04.2018 04:00:00 6,1 4,5 - - 4 2 - - N 1011,1 13 0 0,0
15.04.2018 03:00:00 7,0 5,4 - - 8 4 - - ESE 1011,5 22 0 0,0
15.04.2018 02:00:00 8,4 6,3 - - 8 4 - - ENE 1011,8 27 0 0,0
15.04.2018 01:00:00 8,4 6,0 - - 2 1 - - SE 1012,2 19 - 0,0
15.04.2018 00:00:00 9,1 6,5 - - 9 5 - - S 1012,5 29 0 0,0
14.04.2018 23:00:00 7,9 5,1 - - 8 4 - - SE 1012,5 23 0 0,0
14.04.2018 22:00:00 8,0 5,7 - - 15 8 - - ESE 1012,5 30 0 0,0
14.04.2018 21:00:00 7,8 6,0 - - 11 6 - - E 1012,7 14 0 0,0

tt = Température de l'air
td = dewpoint
tt -20cm = Température de l'air -20cm
tt -100cm = Température de l'air -100cm
ff = Vitesse du vent
fx = gusts
dd = Direction du vent
ppp = reduced air pressure
vv = visibility
sd = Ensoleillement
rr = Quantités de précipitations

stations d'obs. à proximité